Location: Ash Observatory
(39.7321°N, 75.2004°W)
Time: 07:15:59
(UTC-04:00)

ISS - Pass Details

Date: 23 May 2019
Orbit: 407 x 418 km, 51.6° (Epoch: 20 June)

Event Time Altitude Azimuth Distance (km) Brightness Sun altitude
Rises 00:26:23 0° 313° (NW) 2,363 0.8 -29.3°
Reaches altitude 10° 00:29:14 10° 340° (NNW) 1,500 -0.1 -29.4°
Maximum altitude 00:31:09 14° 15° (NNE) 1,265 -0.6 -29.4°
Enters shadow 00:31:17 14° 18° (NNE) 1,266 -0.6 -29.4°
